Location: Unspecified
(0.0000°N, 0.0000°E)
Time: 16:45:07
(UTC+00:00)

Courier 1B - All Passes

Search period start: 21 October 2014 00:00
Search period end: 31 October 2014 00:00
Orbit: 963 x 1209 km, 28.3° (Epoch: 20 October)

Date Brightness Start Highest point End Pass type
(mag) Time Alt. Az. Time Alt. Az. Time Alt. Az.
21 Oct - 05:03:31 10° SSW 05:09:11 26° SSE 05:15:07 10° E visible
21 Oct - 06:56:18 10° WSW 07:03:33 87° SSE 07:11:14 10° ENE daylight
21 Oct - 08:51:41 10° W 08:58:07 30° NNW 09:04:45 10° NNE daylight
21 Oct - 10:52:08 10° NNW 10:53:40 11° NNW 10:55:11 10° N daylight
21 Oct - 16:37:34 10° NNW 16:43:10 23° NNE 16:48:32 10° ENE daylight
21 Oct - 18:30:33 10° NW 18:37:43 75° NNE 18:44:26 10° ESE visible
21 Oct - 20:25:57 10° W 20:31:51 31° SSW 20:37:31 10° SSE visible
22 Oct - 04:10:38 10° SSW 04:15:14 19° SSE 04:19:59 10° ESE visible
22 Oct - 06:02:42 10° SW 06:09:41 64° SSE 06:17:07 10° ENE daylight
22 Oct - 07:57:17 10° W 08:04:04 40° NNW 08:11:12 10° NE daylight
22 Oct - 09:55:38 10° NW 09:59:18 14° NNW 10:03:01 10° N daylight
22 Oct - 15:44:18 10° NNW 15:49:04 18° NNE 15:53:40 10° ENE daylight
22 Oct - 17:36:45 10° NW 17:43:53 54° NNE 17:50:35 10° ESE daylight
22 Oct - 19:31:27 10° W 19:38:03 43° SSW 19:44:20 10° SE visible
22 Oct - 21:30:09 10° SW 21:32:39 12° SSW 21:35:07 10° S visible
23 Oct - 03:18:13 10° S 03:21:14 13° SSE 03:24:18 10° SE visible
23 Oct - 05:09:18 10° SW 05:15:51 45° SSE 05:22:47 10° ENE visible
23 Oct - 07:03:09 10° WSW 07:10:07 54° NNW 07:17:30 10° NE daylight
23 Oct - 09:00:12 10° WNW 09:05:02 18° NNW 09:10:00 10° NNE daylight
23 Oct - 14:51:17 10° N 14:54:50 14° NNE 14:58:19 10° NE daylight
23 Oct - 16:43:04 10° NW 16:49:59 40° NNE 16:56:31 10° E daylight
23 Oct - 18:37:10 10° WNW 18:44:17 61° SSW 18:50:58 10° SE visible
23 Oct - 20:34:21 10° WSW 20:38:39 17° SSW 20:42:51 10° SSE visible
24 Oct - 04:16:04 10° SSW 04:22:01 32° SSE 04:28:15 10° E visible
24 Oct - 06:09:15 10° WSW 06:16:14 74° NNW 06:23:41 10° NE daylight
24 Oct - 08:05:15 10° WNW 08:10:53 23° NNW 08:16:44 10° NNE daylight
24 Oct - 13:59:06 10° N 14:00:30 11° NNE 14:01:54 10° NNE daylight
24 Oct - 15:49:31 10° NNW 15:56:00 30° NNE 16:02:12 10° E daylight
24 Oct - 17:43:03 10° WNW 17:50:28 85° SSW 17:57:26 10° ESE daylight
24 Oct - 19:39:13 10° W 19:44:44 24° SSW 19:50:03 10° SSE visible
25 Oct - 03:23:02 10° SSW 03:28:09 23° SSE 03:33:27 10° ESE visible
25 Oct - 05:15:33 10° WSW 05:22:24 82° SSE 05:29:43 10° ENE visible
25 Oct - 07:10:40 10° W 07:16:49 31° NNW 07:23:17 10° NNE daylight
25 Oct - 09:10:42 10° NNW 09:12:16 11° NNW 09:13:51 10° N daylight
25 Oct - 14:56:05 10° NNW 15:01:55 23° NNE 15:07:34 10° ENE daylight
25 Oct - 16:49:05 10° NW 16:56:37 71° NNE 17:03:42 10° ESE daylight
25 Oct - 18:44:26 10° W 18:50:52 34° SSW 18:56:59 10° SE visible
26 Oct - 02:30:17 10° SSW 02:34:15 16° SSE 02:38:17 10° ESE visible
26 Oct - 04:22:03 10° SW 04:28:37 59° SSE 04:35:35 10° ENE visible
26 Oct - 06:16:24 10° W 06:22:52 41° NNW 06:29:43 10° NE daylight
26 Oct - 08:14:27 10° NW 08:17:57 14° NNW 08:21:33 10° N daylight
26 Oct - 14:02:50 10° NNW 14:07:44 18° NNE 14:12:33 10° ENE daylight
26 Oct - 15:55:16 10° NW 16:02:43 52° NNE 16:09:46 10° ESE daylight
26 Oct - 17:49:55 10° WNW 17:57:01 48° SSW 18:03:43 10° SE daylight
26 Oct - 19:48:12 10° SW 19:51:39 14° SSW 19:55:01 10° S visible
27 Oct - 01:38:10 10° S 01:40:15 12° SSE 01:42:21 10° SE visible
27 Oct - 03:28:42 10° SW 03:34:52 41° SSE 03:41:18 10° E visible
27 Oct - 05:22:22 10° WSW 05:28:59 56° NNW 05:36:02 10° NE daylight
27 Oct - 07:19:10 10° WNW 07:23:45 18° NNW 07:28:31 10° NNE daylight
27 Oct - 13:09:53 10° N 13:13:28 14° NNE 13:17:01 10° NE daylight
27 Oct - 15:01:35 10° NW 15:08:44 39° NNE 15:15:35 10° E daylight
27 Oct - 16:55:37 10° WNW 17:03:10 67° SSW 17:10:16 10° SE daylight
27 Oct - 18:52:36 10° WSW 18:57:37 20° SSW 19:02:28 10° SSE visible
28 Oct - 02:35:32 10° SSW 02:41:05 29° SSE 02:46:48 10° E visible
28 Oct - 04:28:33 10° WSW 04:35:12 78° NNW 04:42:15 10° NE visible
28 Oct - 06:24:20 10° WNW 06:29:40 23° NNW 06:35:15 10° NNE daylight
28 Oct - 12:18:03 10° N 12:19:05 10° NNE 12:20:08 10° NNE daylight
28 Oct - 14:08:03 10° NNW 14:14:40 30° NNE 14:21:07 10° E daylight
28 Oct - 16:01:30 10° WNW 16:09:16 90° SSW 16:16:38 10° ESE daylight
28 Oct - 17:57:31 10° W 18:03:40 27° SSW 18:09:32 10° SSE visible
29 Oct - 01:42:32 10° SSW 01:47:15 21° SSE 01:52:01 10° ESE visible
29 Oct - 03:34:54 10° SW 03:41:27 76° SSE 03:48:20 10° ENE visible
29 Oct - 05:29:52 10° W 05:35:42 31° NNW 05:41:51 10° NNE daylight
29 Oct - 07:30:04 10° NNW 07:30:59 10° NNW 07:31:54 10° N daylight
29 Oct - 13:14:42 10° NNW 13:20:32 22° NNE 13:26:19 10° ENE daylight
29 Oct - 15:07:34 10° NW 15:15:20 68° NNE 15:22:47 10° ESE daylight
29 Oct - 17:02:46 10° W 17:09:43 38° SSW 17:16:21 10° SE daylight
29 Oct - 19:02:26 10° SW 19:04:39 11° SSW 19:06:50 10° S visible
30 Oct - 00:49:49 10° S 00:53:20 15° SSE 00:56:51 10° ESE night (unlit)
30 Oct - 02:41:26 10° SW 02:47:44 54° SSE 02:54:16 10° ENE visible
30 Oct - 04:35:39 10° W 04:41:50 42° NNW 04:48:21 10° NE visible
30 Oct - 06:33:34 10° NW 06:36:44 13° NNW 06:39:59 10° N daylight
30 Oct - 12:21:33 10° NNW 12:26:20 17° NNE 12:31:06 10° ENE daylight
30 Oct - 14:13:48 10° NW 14:21:21 50° NNE 14:28:43 10° ESE daylight
30 Oct - 16:08:17 10° WNW 16:15:48 52° SSW 16:22:58 10° SE daylight
30 Oct - 18:06:10 10° WSW 18:10:31 16° SSW 18:14:45 10° SSE visible
30 Oct - 23:57:59 10° S 23:59:19 11° SSE 00:00:00 10° SSE night (unlit)
